Theta_e
317 317 317 317 317 317 317 318 318 318 319 319 320 320 320 320 319 319 316 321 325 331 322 318 316 318 318 316 319 319 308 306 308 311 314 321 321 329 330 328 328 331 333 333 334
316 316 316 316 317 317 317 317 317 318 318 319 319 319 319 319 316 314 330 332 333 331 313 315 310 315 312 313 315 313 308 308 314 316 317 320 320 325 324 325 327 332 335 333 332
315 316 316 316 316 317 316 317 317 318 318 319 319 319 319 318 317 319 334 333 330 328 315 317 315 313 309 311 311 312 308 313 315 318 319 318 318 328 325 321 327 328 331 329 330
315 315 315 315 316 316 316 317 317 318 318 318 318 318 318 317 309 322 339 338 333 318 316 315 313 310 307 306 310 307 312 314 315 317 318 316 320 318 324 324 326 329 332 329 328
314 315 315 315 315 316 316 316 317 317 317 317 317 317 317 317 315 326 344 342 324 316 313 312 310 310 307 308 309 308 311 313 316 316 317 318 317 318 319 326 326 333 332 328 328
315 315 315 314 315 316 316 316 316 316 316 317 317 316 314 310 321 328 327 325 319 317 316 314 311 312 309 309 308 311 310 311 314 315 316 313 316 319 319 327 325 327 332 330 329
315 315 315 315 314 315 316 316 316 316 317 319 318 318 317 316 323 325 324 322 321 319 315 317 316 312 311 307 312 311 307 310 311 313 312 315 311 314 320 322 329 334 334 333 332
315 314 314 314 314 315 315 316 315 317 321 320 320 318 317 319 324 321 324 321 321 320 317 317 317 313 311 313 311 307 307 302 309 312 313 312 305 315 320 320 327 329 332 333 333
314 313 314 314 314 314 315 315 316 322 319 317 319 321 316 319 315 321 323 318 319 318 316 316 315 310 310 307 305 306 300 302 305 312 311 311 307 315 319 320 321 327 332 333 332
313 313 313 313 314 314 314 314 320 319 320 323 324 316 318 313 317 319 322 321 317 314 310 310 310 306 306 305 297 301 302 303 303 309 310 308 309 314 316 317 318 324 330 330 335
313 313 312 313 314 314 313 321 320 319 322 316 315 314 314 317 318 316 320 318 317 310 305 308 304 303 306 308 307 306 305 304 307 310 310 309 310 311 315 318 320 321 327 332 334
313 312 312 313 313 313 313 317 313 316 311 316 314 315 317 317 311 315 321 313 312 307 310 308 303 308 310 309 307 305 303 304 307 310 309 308 309 312 314 318 321 322 323 329 335
311 311 312 313 312 314 318 314 319 320 312 313 314 313 314 315 311 312 317 314 311 308 309 305 308 310 307 306 304 304 302 303 303 307 309 307 307 311 315 318 322 323 326 330 336
311 311 311 311 313 319 317 319 321 321 307 307 310 313 313 314 309 317 317 315 311 307 309 308 311 307 306 304 306 301 307 306 304 303 299 308 298 307 312 314 321 322 323 323 332
310 311 311 310 316 319 319 321 320 319 297 308 310 319 315 312 312 311 318 314 308 309 308 306 307 306 305 305 308 304 310 307 306 303 302 302 299 304 312 310 314 318 321 323 325
309 310 310 318 320 322 323 321 318 302 294 305 310 310 309 311 311 314 313 315 315 310 311 308 314 310 309 310 310 310 307 307 307 304 296 302 301 301 306 311 315 318 319 321 323
308 309 309 320 320 324 323 317 304 297 306 303 304 308 309 308 309 310 308 307 305 303 303 308 308 311 311 306 310 308 304 297 296 296 295 305 301 304 310 313 314 317 320 322 324
307 306 314 322 324 324 321 309 297 303 302 307 306 306 304 307 307 308 307 305 310 308 305 301 300 308 311 308 305 307 306 299 292 294 296 306 300 304 314 315 316 317 318 326 324
305 321 322 326 323 323 314 301 301 305 306 303 305 301 303 305 306 306 306 309 310 311 304 304 303 311 311 311 310 305 303 309 302 303 298 301 305 311 314 313 315 315 317 321 321
311 318 320 322 325 321 310 301 305 308 308 306 301 304 301 304 303 303 305 311 309 311 313 308 302 310 310 312 310 307 310 301 303 294 293 298 301 302 309 310 313 314 319 323 324
315 314 321 324 322 313 304 306 306 310 309 305 304 303 304 303 303 303 303 310 311 310 312 309 306 305 308 306 304 307 303 302 306 303 296 294 299 310 307 313 312 314 318 322 319
316 308 320 321 309 311 307 309 303 307 308 307 308 307 305 305 303 302 301 308 310 309 305 310 309 302 302 308 309 307 304 304 297 298 302 296 294 313 313 311 314 312 317 318 317
310 311 320 318 303 306 310 307 307 306 306 306 306 308 309 305 302 305 305 312 309 307 307 310 305 297 298 303 307 304 306 307 307 308 300 295 297 311 314 315 314 313 316 318 318
311 305 312 313 312 308 308 305 303 307 306 308 308 310 307 305 307 304 304 311 309 307 312 310 304 299 294 298 302 301 302 302 306 299 299 299 301 306 310 311 313 317 319 320 324
313 308 309 304 306 306 307 307 304 303 306 307 305 306 306 303 303 303 306 307 308 309 306 307 300 302 302 303 304 302 302 303 301 301 298 300 301 305 309 310 314 319 319 320 322
305 305 307 306 307 305 301 303 303 304 304 303 303 306 307 303 305 303 306 306 305 307 305 310 301 302 298 301 301 298 300 300 300 300 299 299 299 306 310 312 317 318 317 319 319
311 312 307 305 305 303 304 304 304 305 305 305 304 304 304 304 305 307 308 308 307 305 305 305 302 299 295 300 299 295 300 301 302 303 302 298 303 308 310 315 316 319 320 320 321
Wind_Speed
15 16 15 16 16 16 16 16 16 15 16 16 15 13 14 15 17 7 11 3 1 5 3 9 11 14 16 16 18 18 14 14 22 21 15 21 9 9 4 11 6 10 24 22 20
16 16 16 17 17 18 17 16 16 16 17 16 15 13 14 13 13 17 5 7 7 6 9 12 13 14 14 18 16 16 14 20 23 11 8 6 4 13 7 9 13 19 23 22 21
16 17 17 18 18 18 17 17 16 16 17 16 15 13 12 13 10 4 7 8 6 6 14 15 14 15 16 16 19 19 17 21 23 17 12 17 4 12 14 15 13 14 20 21 20
18 18 18 18 18 19 18 17 17 17 17 16 14 12 10 6 3 7 6 7 6 8 11 14 14 15 15 17 19 21 20 21 23 22 7 11 2 6 4 8 28 11 17 20 20
18 19 19 19 18 19 19 18 18 17 16 15 12 9 6 9 8 8 9 8 9 8 12 12 13 13 15 17 17 19 18 19 20 19 4 12 13 4 8 25 32 20 17 20 18
17 18 19 19 19 18 17 17 17 17 16 13 9 5 6 11 7 13 10 11 12 12 13 13 12 12 15 16 16 15 17 20 20 15 13 11 15 3 10 26 37 31 24 20 19
18 19 19 19 19 19 17 16 16 16 15 12 8 7 10 13 2 7 10 12 10 11 10 8 12 12 9 13 16 17 17 11 17 16 16 9 14 13 13 13 14 23 20 21 19
19 20 20 19 19 19 17 15 15 14 11 4 7 6 9 3 6 7 12 6 5 4 7 11 7 11 16 15 12 13 15 14 18 18 16 14 14 15 15 15 18 18 20 18 21
20 20 21 21 20 19 17 15 15 10 5 4 6 7 8 4 9 9 9 6 5 5 5 7 8 12 15 13 12 12 12 19 18 19 17 12 16 16 17 19 14 30 33 17 12
20 21 22 22 20 17 15 13 7 6 7 9 12 10 10 6 9 7 10 9 5 5 5 8 7 11 13 12 14 10 18 13 15 14 14 13 15 14 20 20 14 7 14 13 16
23 22 22 22 18 13 12 5 7 7 9 12 8 10 6 6 5 8 9 10 11 6 11 12 11 13 15 17 20 10 15 14 8 7 3 8 11 16 15 8 7 10 10 9 13
24 24 23 23 19 10 7 8 8 8 9 9 2 8 4 4 7 10 10 9 10 12 12 10 12 15 12 6 11 10 15 15 15 7 3 10 14 14 14 13 11 12 12 13 19
24 24 22 22 22 7 9 6 8 8 7 10 4 1 3 9 8 13 13 13 11 11 13 10 11 4 3 7 10 12 13 14 14 14 10 10 16 16 13 15 15 13 12 15 20
23 23 22 23 5 3 5 6 7 6 7 12 10 7 9 10 6 6 12 14 9 12 14 9 13 5 5 10 11 11 14 15 12 13 10 13 11 15 13 14 17 18 16 15 17
24 24 22 8 12 6 7 7 8 3 6 6 7 6 12 8 10 11 6 12 13 16 5 14 7 5 11 14 10 11 9 8 10 12 14 17 12 15 8 18 20 18 19 19 18
25 23 20 5 7 6 7 6 5 7 4 8 6 9 14 15 8 7 6 10 12 13 11 14 7 5 9 11 3 12 9 9 12 12 13 17 16 15 15 11 9 9 11 19 20
27 22 11 9 7 9 9 6 7 9 2 7 7 7 6 5 9 7 9 9 11 7 10 9 13 12 8 11 11 12 9 9 12 12 14 10 17 13 14 9 12 12 19 13 15
29 20 9 8 12 8 8 9 9 5 2 6 3 3 7 6 7 6 6 12 10 7 11 9 15 9 6 5 13 10 13 9 15 13 8 15 8 2 7 3 6 9 7 13 12
29 6 7 10 6 6 8 9 8 10 6 3 7 9 9 5 6 4 9 12 4 8 7 9 16 11 11 5 11 14 12 13 12 17 14 13 3 11 10 6 13 8 10 2 9
8 10 10 3 2 6 8 14 11 4 7 4 11 5 9 11 6 8 10 6 2 5 10 13 11 8 8 5 11 15 14 10 7 8 14 14 7 12 15 14 20 24 17 20 14
5 7 6 5 4 6 10 8 4 10 6 3 8 5 9 5 4 12 2 8 4 6 9 14 8 14 15 8 10 5 5 15 5 5 7 12 7 16 21 14 12 22 20 15 15
6 6 6 2 7 8 12 12 1 2 2 6 5 10 8 4 6 9 6 11 6 4 8 9 5 10 17 22 18 16 7 11 8 5 4 6 13 5 11 11 16 18 21 10 10
7 9 6 3 7 8 5 5 2 3 8 4 5 5 2 5 3 10 7 11 7 5 7 11 3 8 11 14 10 10 12 16 5 5 11 11 9 9 4 2 6 4 12 10 13
6 5 6 5 6 7 11 5 7 1 10 4 10 3 6 8 9 5 6 9 7 5 7 4 5 9 12 20 17 16 4 15 14 7 12 14 18 17 15 12 9 9 15 17 14
6 2 4 5 7 9 7 10 10 6 7 3 7 10 9 9 12 12 12 5 9 13 4 4 8 13 16 20 21 21 19 15 18 16 16 17 20 17 15 14 10 15 16 15 15
5 5 8 10 6 8 4 8 11 12 1 6 9 12 6 6 9 12 14 8 4 9 6 7 8 9 14 17 19 22 22 21 20 20 21 20 22 16 14 10 14 13 15 12 14
7 7 5 8 7 7 10 9 9 5 5 4 9 9 10 5 8 9 7 8 9 8 9 8 8 9 16 16 18 19 17 22 22 20 20 19 17 13 9 14 14 14 15 15 16
Wind_Direction
349 343 345 335 329 323 321 319 313 313 306 304 309 313 314 317 303 233 252 210 115 159 183 246 214 229 247 261 246 246 254 268 267 276 145 218 198 139 135 114 166 79 139 144 149
347 342 338 332 328 319 315 310 312 311 303 303 305 314 314 324 285 260 222 120 125 171 220 217 209 217 230 235 246 238 252 252 269 315 157 104 259 146 154 161 125 105 117 137 151
343 341 335 332 323 312 311 311 310 303 299 300 305 313 315 314 276 81 154 147 162 213 243 279 217 211 227 231 232 241 243 264 270 311 290 120 238 145 221 184 45 124 138 150 158
344 336 334 324 318 311 313 313 305 298 297 300 304 308 317 272 320 108 176 173 177 232 234 262 249 233 234 236 235 235 246 254 278 294 312 291 334 199 270 136 114 266 156 155 164
336 332 326 323 316 315 314 311 302 300 299 298 301 303 274 231 245 131 152 153 176 194 223 235 242 248 234 244 238 237 249 255 263 282 295 305 288 245 236 127 123 223 203 159 167
330 325 322 323 319 315 312 307 306 303 297 292 283 277 248 250 84 146 145 163 181 210 217 226 233 246 270 260 263 245 238 254 264 269 265 248 269 233 260 138 165 167 181 159 172
329 320 321 320 318 314 316 312 305 302 296 277 247 237 257 265 345 153 167 198 223 233 269 249 257 281 259 279 257 270 274 261 243 264 267 231 244 248 237 227 168 154 157 165 178
326 323 318 318 322 323 318 311 306 301 298 280 192 230 276 101 332 188 199 207 209 249 292 302 269 273 267 279 274 251 248 259 253 232 244 235 252 232 241 236 185 188 155 170 175
323 320 319 325 326 323 315 312 300 301 284 169 206 230 252 136 219 210 213 195 200 227 240 280 252 245 242 246 259 229 247 233 248 235 215 198 248 262 263 217 217 126 228 179 173
324 324 326 324 325 320 312 296 320 281 216 210 260 252 235 225 158 197 209 267 211 222 207 218 221 230 233 232 240 231 212 225 261 243 178 223 234 242 265 257 198 201 182 166 157
329 328 325 321 323 323 308 220 208 197 239 265 144 254 145 105 146 217 196 216 208 213 236 193 221 224 232 217 255 337 302 313 255 216 300 208 251 251 248 166 194 213 189 170 162
327 326 326 321 317 315 262 266 31 333 296 201 243 237 302 312 207 192 182 218 218 236 210 217 230 255 259 359 338 311 281 281 298 313 52 289 266 243 238 203 206 234 235 218 151
326 325 323 322 318 259 251 357 311 319 263 188 191 296 174 202 222 171 192 220 237 243 260 263 285 71 356 297 258 268 269 277 266 286 180 251 267 263 232 217 182 207 228 205 169
324 324 330 322 299 336 249 338 313 23 271 151 198 146 151 205 222 147 187 234 232 256 265 254 267 44 267 251 267 258 253 234 275 289 269 220 255 247 226 227 187 194 204 228 196
327 328 326 332 312 285 343 316 346 250 261 149 120 104 154 219 125 181 226 232 265 280 249 270 216 259 246 247 256 253 356 336 289 270 265 268 265 266 235 216 219 210 200 209 220
328 324 328 192 227 303 320 337 246 233 239 146 164 202 187 209 182 123 207 236 290 288 282 272 311 284 300 320 335 300 311 258 265 260 257 247 254 268 261 236 198 226 230 215 204
323 318 308 311 297 341 318 262 245 253 119 151 204 221 237 141 182 195 175 208 251 244 240 274 262 229 216 270 237 218 249 262 251 227 239 325 241 235 252 253 204 192 227 239 103
317 311 227 258 289 322 293 255 263 331 85 30 328 211 252 172 224 225 223 226 207 291 307 286 247 297 296 240 296 328 244 260 280 302 340 283 266 303 281 266 264 264 283 117 103
309 246 244 228 285 286 274 240 262 340 38 297 190 268 205 215 286 257 230 75 43 339 337 326 347 205 220 275 301 294 263 342 310 275 272 268 168 275 240 335 347 285 292 103 97
318 285 247 92 276 271 259 260 300 32 345 276 276 229 276 180 182 229 257 79 119 11 338 306 313 281 208 238 265 256 294 293 284 341 303 295 323 52 5 41 9 341 9 64 74
268 250 103 273 226 252 250 256 197 88 335 276 284 300 271 330 258 299 32 101 39 5 333 308 306 298 305 265 330 327 10 336 307 299 308 301 340 35 24 13 30 27 43 57 68
292 270 113 267 246 230 242 341 55 95 206 273 291 309 306 325 295 284 297 63 54 358 305 13 339 302 297 308 312 301 263 270 290 272 112 143 278 244 91 306 42 17 2 74 91
288 295 135 246 255 255 168 207 326 249 270 258 249 262 289 279 252 258 296 100 44 22 32 352 267 281 276 254 285 284 325 331 281 325 274 270 265 309 140 62 95 50 16 117 134
275 283 178 208 278 291 320 252 191 141 308 320 302 344 271 249 256 266 255 143 112 72 58 345 280 279 284 304 311 300 102 298 270 280 290 284 305 313 326 353 11 16 25 4 358
250 17 28 309 54 339 344 311 303 176 206 240 265 249 260 262 267 246 224 213 171 151 185 235 268 275 277 284 292 291 289 288 285 281 274 284 286 298 315 329 22 25 5 359 359
324 352 355 294 280 286 261 269 264 265 180 233 230 289 263 269 290 307 350 333 312 141 188 222 259 282 280 281 283 283 285 284 279 277 277 281 280 291 291 302 39 19 347 10 355
18 313 279 299 270 254 256 264 252 309 318 329 328 313 270 19 352 332 335 323 317 319 291 270 252 274 271 281 282 269 264 266 267 269 269 266 273 291 -0 46 29 26 26 1 359